FW4212 Weather Reports


time (UTC)temp
F
wind
direction
speed
knots
gust
knots
rain 1hr
in
rain 24hr
in
rain mn
in
humidity
%
barometer
mb
20260504202529 77 261 2.6 6.1 0.00 0.00 0.00 33 1014.9
20260504202027 77 194 0.9 6.1 0.00 0.00 0.00 34 1015.0
20260504201527 77 152 0.9 6.1 0.00 0.00 0.00 34 1015.0
20260504201025 77 161 1.7 6.1 0.00 0.00 0.00 38 1015.1
20260504200525 77 245 2.6 6.1 0.00 0.00 0.00 34 1015.2
20260504200028 77 168 1.7 5.2 0.00 0.00 0.00 35 1015.4
20260504195523 77 198 1.7 6.1 0.00 0.00 0.00 34 1015.3
20260504195023 77 127 0.9 4.3 0.00 0.00 0.00 36 1015.3
20260504194529 76 96 0.0 5.2 0.00 0.00 0.00 34 1015.4
20260504194022 76 344 2.6 5.2 0.00 0.00 0.00 32 1015.4
20260504193522 77 205 1.7 5.2 0.00 0.00 0.00 36 1015.5
20260504193022 76 134 1.7 4.3 0.00 0.00 0.00 32 1015.6
20260504192521 77 107 0.9 5.2 0.00 0.00 0.00 35 1015.7
20260504192021 77 233 0.9 7.0 0.00 0.00 0.00 35 1015.8
20260504191520 78 243 0.9 7.0 0.00 0.00 0.00 37 1015.8
20260504191019 76 305 1.7 5.2 0.00 0.00 0.00 33 1015.8
20260504190518 77 147 2.6 4.3 0.00 0.00 0.00 37 1016.0
20260504190023 76 184 1.7 4.3 0.00 0.00 0.00 42 1016.1
20260504185515 76 134 1.7 5.2 0.00 0.00 0.00 34 1016.1
20260504185015 76 201 0.0 4.3 0.00 0.00 0.00 37 1016.2
20260504184518 76 198 1.7 7.8 0.00 0.00 0.00 37 1016.4
20260504184014 76 270 3.5 7.8 0.00 0.00 0.00 36 1016.3
20260504183513 75 245 0.9 7.8 0.00 0.00 0.00 39 1016.4
20260504183012 75 205 2.6 7.0 0.00 0.00 0.00 35 1016.6
20260504182513 74 271 0.9 7.0 0.00 0.00 0.00 38 1016.7
20260504182010 74 205 1.7 7.0 0.00 0.00 0.00 37 1016.7
20260504181512 74 255 1.7 7.0 0.00 0.00 0.00 38 1016.8
20260504181014 74 274 2.6 5.2 0.00 0.00 0.00 37 1016.8
20260504180510 75 250 2.6 6.1 0.00 0.00 0.00 35 1016.8
20260504180007 74 284 0.9 5.2 0.00 0.00 0.00 38 1016.9
20260504175509 73 313 1.7 5.2 0.00 0.00 0.00 39 1016.9
20260504175010 71 89 0.9 2.6 0.00 0.00 0.00 36 1017.0
20260504174509 72 43 0.0 6.1 0.00 0.00 0.00 37 1017.0
20260504174006 73 210 2.6 9.6 0.00 0.00 0.00 35 1017.1
20260504173506 74 211 3.5 9.6 0.00 0.00 0.00 36 1017.0
20260504173006 73 138 1.7 7.0 0.00 0.00 0.00 39 1017.0
20260504172504 73 147 2.6 7.0 0.00 0.00 0.00 36 1017.1
20260504172003 72 319 1.7 5.2 0.00 0.00 0.00 37 1017.1
20260504171503 72 265 0.0 5.2 0.00 0.00 0.00 43 1017.2
20260504171003 72 234 1.7 3.5 0.00 0.00 0.00 37 1017.2
20260504170502 72 228 0.9 3.5 0.00 0.00 0.00 41 1017.3
20260504151047 67 304 0.9 6.1 0.00 0.00 0.00 43 1019.4
20260504150547 67 236 1.7 6.1 0.00 0.00 0.00 38 1019.4
20260504141036 64 267 0.9 3.5 0.00 0.00 0.00 49 1019.2
20260504140535 63 336 0.9 6.1 0.00 0.00 0.00 50 1019.1
20260504130522 56 238 0.0 2.6 0.00 0.00 0.00 65 1019.1
20260504110503 40 254 0.0 0.9 0.00 0.00 0.00 91 1018.6
20260504100600 39 253 0.0 0.0 0.00 0.00 0.00 92 1018.7
20260504100104 39 253 0.0 0.0 0.00 0.00 0.00 92 1018.6
20260504090107 40 260 0.0 0.0 0.00 0.00 0.00 90 1018.9
20260504081553 40 260 0.0 0.0 0.00 0.00 0.00 89 1018.3
20260504081049 41 260 0.0 0.0 0.00 0.00 0.00 90 1018.4
20260504080549 41 260 0.0 0.0 0.00 0.00 0.00 89 1018.3
20260504050532 44 223 0.0 0.0 0.00 0.00 0.00 83 1018.9
20260504045530 44 223 0.0 0.0 0.00 0.00 0.00 83 1018.8
20260504045030 44 223 0.0 0.0 0.00 0.00 0.00 83 1018.9
20260504044531 44 223 0.0 0.0 0.00 0.00 0.00 83 1018.8
20260504044030 44 223 0.0 0.0 0.00 0.00 0.00 82 1018.8
20260504043528 45 223 0.0 0.0 0.00 0.00 0.00 82 1018.7
20260504043042 45 223 0.0 0.0 0.00 0.00 0.00 82 1018.6
20260504042527 45 223 0.0 0.0 0.00 0.00 0.00 82 1018.7
20260504042026 45 223 0.0 0.0 0.00 0.00 0.00 82 1018.7
20260504041530 45 223 0.0 0.0 0.00 0.00 0.00 81 1018.6
20260504041026 45 223 0.0 0.0 0.00 0.00 0.00 81 1018.5
20260504040524 45 223 0.0 0.0 0.00 0.00 0.00 80 1018.5
20260504040025 46 223 0.0 0.0 0.00 0.00 0.00 79 1018.5
20260504035525 46 223 0.0 0.0 0.00 0.00 0.00 79 1018.4
20260504035024 46 223 0.0 0.0 0.00 0.00 0.00 78 1018.5
20260504034523 46 223 0.0 0.0 0.00 0.00 0.00 78 1018.5
20260504034022 46 223 0.0 0.0 0.00 0.00 0.00 78 1018.5
20260504033522 46 223 0.0 0.0 0.00 0.00 0.00 78 1018.6
20260504033024 47 223 0.0 0.0 0.00 0.00 0.00 76 1018.7
20260504032522 47 223 0.0 0.0 0.00 0.00 0.00 76 1018.7
20260504032022 47 223 0.0 0.0 0.00 0.00 0.00 75 1018.6
20260504031522 47 223 0.0 0.0 0.00 0.00 0.00 74 1018.7
20260504031021 48 223 0.0 0.0 0.00 0.00 0.00 73 1018.8
20260504030521 48 223 0.0 0.0 0.00 0.00 0.00 72 1018.8
20260504030021 48 223 0.0 0.0 0.00 0.00 0.00 71 1018.9
20260504025521 48 223 0.0 0.0 0.00 0.00 0.00 71 1018.8
20260504025021 49 223 0.0 0.0 0.00 0.00 0.00 71 1018.8
20260504024521 49 223 0.0 0.0 0.00 0.00 0.00 70 1018.9
20260504024022 49 223 0.0 0.0 0.00 0.00 0.00 70 1018.7
20260504023521 49 223 0.0 0.0 0.00 0.00 0.00 70 1018.6
20260504023026 49 223 0.0 0.0 0.00 0.00 0.00 69 1018.8
20260504022521 49 223 0.0 0.0 0.00 0.00 0.00 68 1018.7
20260504022020 50 223 0.0 0.0 0.00 0.00 0.00 68 1018.6
20260504021622 50 223 0.0 0.0 0.00 0.00 0.00 67 1018.5
20260504021020 51 223 0.0 0.0 0.00 0.00 0.00 67 1018.4
20260504020520 51 223 0.0 0.0 0.00 0.00 0.00 66 1018.3
20260504020019 51 223 0.0 0.0 0.00 0.00 0.00 65 1018.3
20260504015519 51 223 0.0 0.0 0.00 0.00 0.00 64 1018.3
20260504015022 52 211 0.0 0.0 0.00 0.00 0.00 63 1018.2
20260504014524 52 212 0.0 0.0 0.00 0.00 0.00 61 1017.9
20260504014018 52 209 0.0 0.0 0.00 0.00 0.00 60 1017.7
20260504013518 53 209 0.0 0.0 0.00 0.00 0.00 59 1017.6
20260504013021 53 209 0.0 0.0 0.00 0.00 0.00 58 1017.5
20260504012520 53 209 0.0 0.0 0.00 0.00 0.00 57 1017.5
20260504012018 54 209 0.0 0.0 0.00 0.00 0.00 54 1017.4
20260504011522 54 209 0.0 0.0 0.00 0.00 0.00 53 1017.5
20260504011017 55 209 0.0 0.0 0.00 0.00 0.00 52 1017.5
20260504010517 55 209 0.0 0.0 0.00 0.00 0.00 51 1017.3
20260504010017 55 209 0.0 0.0 0.00 0.00 0.00 51 1017.3
20260504005518 55 209 0.0 0.0 0.00 0.00 0.00 50 1017.3
20260504005021 56 209 0.0 0.0 0.00 0.00 0.00 50 1017.3
20260504004520 57 209 0.0 0.0 0.00 0.00 0.00 48 1017.2
20260504004017 58 209 0.0 0.0 0.00 0.00 0.00 47 1017.2
20260504003516 59 209 0.0 0.9 0.00 0.00 0.00 45 1017.2
20260504003016 59 221 0.0 0.9 0.00 0.00 0.00 43 1017.1
20260504002519 59 221 0.0 0.9 0.00 0.00 0.00 42 1017.1
20260504002018 59 221 0.0 0.9 0.00 0.00 0.00 42 1017.1
20260504001516 60 221 0.0 0.9 0.00 0.00 0.00 41 1016.9
20260504001016 60 221 0.0 0.9 0.00 0.00 0.00 40 1017.0
20260504000515 61 221 0.0 0.0 0.00 0.00 0.00 40 1017.0
20260504000015 61 221 0.0 0.9 0.00 0.00 0.00 38 1017.0
20260503235516 62 213 0.0 4.3 0.00 0.00 0.00 37 1017.0
20260503235015 63 217 0.0 4.3 0.00 0.00 0.00 35 1017.0
20260503234516 63 202 0.9 3.5 0.00 0.00 0.00 34 1016.9
20260503234015 64 205 0.0 4.3 0.00 0.00 0.00 34 1016.8
20260503233515 64 212 1.7 4.3 0.00 0.00 0.00 33 1016.8
20260503233014 64 211 0.9 2.6 0.00 0.00 0.00 32 1016.9
20260503232516 64 211 0.0 2.6 0.00 0.00 0.00 33 1016.7
20260503232014 65 221 0.0 2.6 0.00 0.00 0.00 33 1016.8
20260503231012 65 206 0.0 2.6 0.00 0.00 0.00 32 1016.7
20260503230611 65 259 0.9 2.6 0.00 0.00 0.00 33 1016.7
20260503230014 65 233 0.9 4.3 0.00 0.00 0.00 33 1016.7
20260503225513 66 207 0.0 6.1 0.00 0.00 0.00 33 1016.8
20260503225014 66 207 0.9 6.1 0.00 0.00 0.00 32 1016.8
20260503224514 66 294 0.9 2.6 0.00 0.00 0.00 35 1016.8
20260503224010 66 243 0.0 4.3 0.00 0.00 0.00 32 1016.8
20260503223512 66 190 0.9 5.2 0.00 0.00 0.00 35 1016.9
20260503223010 66 228 0.9 5.2 0.00 0.00 0.00 34 1016.9
20260503222509 66 211 0.9 4.3 0.00 0.00 0.00 32 1016.8
20260503222009 67 196 0.0 4.3 0.00 0.00 0.00 33 1016.8
20260503221508 67 210 0.0 4.3 0.00 0.00 0.00 35 1016.9
20260503221009 67 184 0.9 4.3 0.00 0.00 0.00 33 1016.9
20260503220508 67 205 0.9 5.2 0.00 0.00 0.00 33 1017.0
20260503220007 67 291 0.9 7.8 0.00 0.00 0.00 34 1017.1
20260503215507 67 227 2.6 7.8 0.00 0.00 0.00 33 1017.1
20260503215006 67 235 0.9 4.3 0.00 0.00 0.00 34 1017.1
20260503214506 67 242 0.9 4.3 0.00 0.00 0.00 34 1017.1
20260503214007 67 124 0.0 5.2 0.00 0.00 0.00 33 1017.2
20260503213506 67 235 1.7 5.2 0.00 0.00 0.00 33 1017.3
20260503213006 66 217 1.7 5.2 0.00 0.00 0.00 33 1017.4
20260503212505 67 214 1.7 6.1 0.00 0.00 0.00 31 1017.4
20260503212005 67 194 1.7 6.1 0.00 0.00 0.00 33 1017.4
20260503211504 66 201 1.7 6.1 0.00 0.00 0.00 32 1017.6
20260503211005 67 103 1.7 6.1 0.00 0.00 0.00 32 1017.7
20260503210507 66 172 2.6 6.1 0.00 0.00 0.00 32 1017.8
20260503210005 67 144 1.7 5.2 0.00 0.00 0.00 32 1017.8
20260503205504 66 297 1.7 6.1 0.00 0.00 0.00 31 1017.8
20260503205004 66 201 2.6 6.1 0.00 0.00 0.00 29 1017.9
20260503204512 66 183 0.9 5.2 0.00 0.00 0.00 31 1017.9
20260503204003 66 200 0.9 3.5 0.00 0.00 0.00 31 1018.2
20260503203504 65 171 0.9 6.1 0.00 0.00 0.00 28 1018.2
20260503203004 66 214 0.9 6.1 0.00 0.00 0.00 28 1018.2